Location: *
(55.5817°S, 142.4781°W)
Time: 06:45:24
(UTC+00:00)

Cosmos 676 Rocket - Pass Details

Date: 29 April 2025
Orbit: 750 x 780 km, 74.0° (Epoch: 23 May)

Event Time Altitude Azimuth Distance (km) Brightness Sun altitude
Rises 15:49:18 0° 209° (SSW) 3,247 6.8 -9.0°
Reaches altitude 10° 15:51:41 10° 211° (SSW) 2,317 6.1 -8.7°
Maximum altitude 15:56:54 69° 293° (WNW) 826 4.0 -8.0°
Drops below altitude 10° 16:02:06 10° 15° (NNE) 2,306 6.9 -7.3°
Sets 16:04:28 0° 17° (NNE) 3,229 7.7 -6.9°
